Location: Unspecified
(43.4680°N, 87.1740°E)
Time: 21:07:18
(UTC+00:00)

Meteor 1-27 - Pass Details

Date: 17 April 2021
Orbit: 838 x 892 km, 81.2° (Epoch: 12 May)

Event Time Altitude Azimuth Distance (km) Brightness Sun altitude
Exits shadow 15:49:11 75° 97° (E) 907 4.1 -27.0°
Drops below altitude 10° 15:54:58 10° 13° (NNE) 2,553 7.1 -27.6°
Sets 15:57:27 0° 12° (NNE) 3,502 7.9 -27.9°
